This is the latest recevied weather packets stored in our database for station/object SV9TNF-56. If no packets are shown the sender has not sent any weather packets the latest 10 day(s).
| Time | Temp. | Humidity | Pressure | Rain* | Wind** | Luminosity | Snow |
|---|---|---|---|---|---|---|---|
| 1788003110 | 25.56° C | 58% | 1020 hPa | 0 mm | 12.07 m/s, 119° | - | - |
| 1788002809 | 25.56° C | 57% | 1020 hPa | 0 mm | 8.05 m/s, 126° | - | - |
| 1788002510 | 25.56° C | 58% | 1020.3 hPa | 0 mm | 25.48 m/s, 242° | - | - |
| 1788002209 | 25.56° C | 57% | 1020 hPa | 0 mm | 7.6 m/s, 352° | - | - |
| 1788001909 | 25.56° C | 56% | 1020 hPa | 0 mm | 8.94 m/s, 212° | - | - |
| 1788001609 | 25.56° C | 56% | 1020 hPa | 0 mm | 8.05 m/s, 243° | - | - |
| 1788001309 | 25.56° C | 58% | 1020 hPa | 0 mm | 24.59 m/s, 250° | - | - |
| 1788001009 | 25.56° C | 57% | 1020 hPa | 0 mm | 8.05 m/s, 228° | - | - |
| 1788000709 | 26.11° C | 57% | 1019.6 hPa | 0 mm | 12.07 m/s, 308° | - | - |
| 1788000409 | 25.56° C | 58% | 1020 hPa | 0 mm | 20.56 m/s, 239° | - | - |
| 1788000108 | 25.56° C | 54% | 1019.6 hPa | 0 mm | 12.52 m/s, 270° | - | - |
| 1787999809 | 25.56° C | 53% | 1019.6 hPa | 0 mm | 16.99 m/s, 207° | - | - |
| 1787999508 | 25° C | 54% | 1019.6 hPa | 0 mm | 12.07 m/s, 156° | - | - |
| 1787999208 | 25° C | 53% | 1020 hPa | 0 mm | 7.6 m/s, 138° | - | - |
| 1787998908 | 25° C | 54% | 1020 hPa | 0 mm | 13.86 m/s, 211° | - | - |
| 1787998608 | 25° C | 53% | 1019.6 hPa | 0 mm | 17.88 m/s, 150° | - | - |
| 1787998308 | 25° C | 55% | 1019.6 hPa | 0 mm | 17.88 m/s, 204° | - | - |
| 1787998008 | 25° C | 57% | 1020 hPa | 0 mm | 15.2 m/s, 198° | - | - |
| 1787997708 | 25° C | 57% | 1020.3 hPa | 0 mm | 24.59 m/s, 216° | - | - |
| 1787997408 | 25° C | 56% | 1019.6 hPa | 0 mm | 12.07 m/s, 150° | - | - |
| 1787997108 | 25° C | 58% | 1019.6 hPa | 0 mm | 15.2 m/s, 192° | - | - |
| 1787996807 | 25° C | 59% | 1019.6 hPa | 0 mm | 15.2 m/s, 210° | - | - |
| 1787996507 | 25.56° C | 56% | 1020 hPa | 0 mm | 17.88 m/s, 110° | - | - |
| 1787996208 | 25° C | 57% | 1020 hPa | 0 mm | 13.41 m/s, 171° | - | - |
| 1787995907 | 25° C | 59% | 1020 hPa | 0 mm | 19.67 m/s, 150° | - | - |
* Rain latest hour (hover to see other rain measurements)
** Current wind speed in m/s (hover to see current wind gust speed)